DECAYED

CZ-6A DEB, 54957 (Decayed)

Orbit data source: Space-Track

CZ-6A DEB, 54957 was space debris in SSO originally from a launch on Fri, 11 Nov 2022 UTC launched from the Taiyaun Space Center, China (TSC). Debris objects in space refer to the collection of defunct objects orbiting the Earth. Examples of debris include non-operational satellites, rocket bodies, and fragments generated from explosions, collisions, or faulty payload assembly.

Loading next visibility...
Identifier
54957, 2022-151SW
Orbit
Decayed
Country
Flag of CNCN / PRC
Related business
Manufacturer
SAST
Mission
Decayed spacecraft
Bus & Motor
Unknown
Mass
Unknown
Launch date (UTC)
2022-11-11 (3 years ago)
Launch vehicle
Unknown
Launch site
Taiyaun Space Center, China (TSC)
Object type
Payload
Rocket body
Debris
Shape & HBR
Unknown shape, 0.1 m
Radar Cross Section
Small (<0.1 m²)

Expand to show TLE details & history
Last TLE update: 9 months ago

TLE from 9 months ago
0 CZ-6A DEB
1 54957U 22151SW  25082.74350767  .01670242  00000-0  15297-1 0  9994
2 54957  98.6406 171.7311 0013026  54.9735 305.2740 15.64545122127018
Epoch: 2025-03-23T17:50Z
TLE epoch observation values (Epoch: 2025-03-23T17:50:39.062Z)
Latitude
-0.0001°
Longitude
82.59852°
Altitude
372.586 km
Speed
7.689 km/s
True Right ascension
11h 26m 55s
True Declination
0° 00' 00"
Sunlit
Object was in full shadow at epoch
Visualization orbit readout
Latitude
Unknown
Longitude
Unknown
Altitude
Unknown
Speed
Unknown
Apparent Right ascension
Unknown
Apparent Declination
Unknown
Sunlit
N/A
Visualization observer readout
Local Sidereal Time
11:53:34
Azimuth
Unknown
Elevation
Unknown
Doppler factor
Unknown
Orbital elements
Apogee altitude
380.304 km
Perigee altitude
362.72 km
Semi-major axis
6,749.649 km
Eccentricity
0.0013
Inclination
98.6406°
RAAN
171.7311°
Arg. of periapsis
54.9735°
True anomaly
305.15202°
Mean anomaly
305.274°
Eccentric anomaly
305.21302°
Mean motion
3.914 °/min
Orbital period
91.98 mins
BSTAR
0.015297
Loading maneuver chart data...
Computing Atmospheric mass density...
Loading historical data...
Loading historical data...
Loading historical data...
Loading historical data...
Loading historical data...
Loading historical data...
Loading historical data...

Documentation

Showing up to 5 results
|